Temp
-11 -11 -11 -11 -11 -11 -11 -11 -11 -11 -11 -10 -11 -11 -11 -10 -10 -10 -10 -10 -10 -10 -10 -10 -10 -10 -10 -10 -9 -9 -9 -9 -9 -10 -10 -11 -10 -10 -11 -11 -12 -11 -11 -10 -11
-12 -12 -11 -11 -11 -11 -11 -11 -11 -11 -11 -11 -11 -10 -11 -10 -10 -10 -10 -10 -10 -10 -10 -10 -10 -10 -10 -10 -9 -9 -9 -9 -10 -10 -10 -10 -10 -10 -11 -11 -11 -11 -11 -10 -11
-12 -12 -12 -12 -11 -11 -11 -11 -11 -11 -11 -11 -11 -11 -10 -11 -11 -10 -10 -10 -10 -10 -10 -10 -10 -10 -10 -10 -10 -9 -9 -9 -9 -10 -10 -10 -10 -10 -10 -10 -11 -10 -11 -10 -11
-12 -12 -12 -12 -11 -11 -11 -11 -10 -10 -10 -10 -10 -10 -10 -10 -10 -10 -10 -10 -10 -10 -10 -10 -10 -10 -10 -10 -10 -9 -9 -9 -9 -9 -10 -9 -10 -10 -9 -10 -11 -10 -11 -10 -11
-12 -12 -12 -11 -11 -11 -11 -11 -10 -10 -10 -10 -11 -10 -10 -10 -11 -10 -10 -10 -10 -10 -10 -11 -10 -10 -10 -10 -10 -10 -10 -10 -9 -9 -9 -9 -9 -10 -9 -10 -10 -10 -10 -10 -12
-12 -11 -11 -11 -11 -11 -11 -10 -10 -10 -10 -10 -11 -10 -10 -11 -10 -10 -11 -11 -11 -10 -10 -11 -10 -11 -10 -10 -10 -10 -9 -9 -9 -9 -10 -10 -9 -9 -9 -10 -10 -10 -11 -10 -11
-12 -12 -12 -11 -11 -11 -11 -11 -11 -10 -11 -11 -10 -11 -11 -11 -11 -11 -11 -11 -11 -11 -11 -11 -11 -11 -11 -11 -10 -10 -10 -10 -10 -10 -10 -10 -9 -9 -9 -10 -10 -10 -10 -11 -11
-12 -12 -12 -11 -11 -11 -11 -11 -11 -11 -11 -11 -11 -11 -11 -12 -11 -11 -11 -11 -12 -12 -12 -11 -11 -11 -11 -11 -11 -11 -10 -10 -10 -10 -10 -10 -8 -9 -10 -10 -10 -10 -10 -10 -11
-12 -12 -12 -12 -12 -11 -11 -11 -11 -11 -11 -11 -12 -12 -12 -12 -11 -12 -12 -12 -12 -12 -12 -12 -12 -12 -12 -12 -12 -11 -11 -11 -10 -10 -10 -10 -8 -10 -9 -9 -9 -9 -9 -9 -10
-12 -12 -12 -12 -12 -12 -12 -12 -12 -11 -11 -12 -12 -12 -12 -12 -12 -12 -13 -13 -13 -13 -13 -13 -13 -13 -13 -13 -12 -12 -12 -11 -11 -11 -11 -10 -9 -9 -9 -9 -9 -9 -9 -9 -9
-13 -13 -12 -12 -12 -12 -12 -12 -12 -12 -12 -12 -12 -12 -12 -12 -13 -13 -13 -14 -14 -14 -14 -14 -14 -13 -13 -13 -13 -13 -13 -12 -12 -12 -11 -11 -10 -10 -10 -9 -9 -9 -9 -9 -9
-13 -13 -13 -13 -13 -12 -13 -12 -12 -12 -12 -13 -13 -12 -13 -13 -13 -14 -14 -14 -14 -14 -14 -14 -14 -13 -13 -13 -13 -13 -13 -13 -12 -12 -12 -11 -10 -10 -10 -9 -9 -9 -9 -9 -10
-14 -13 -13 -13 -13 -13 -13 -13 -13 -13 -13 -13 -13 -13 -13 -13 -14 -14 -14 -14 -14 -14 -14 -14 -14 -14 -14 -13 -13 -13 -13 -13 -12 -12 -12 -12 -11 -11 -11 -10 -10 -10 -9 -9 -9
-14 -14 -13 -13 -13 -13 -13 -13 -13 -13 -13 -13 -13 -14 -14 -14 -14 -14 -14 -14 -14 -14 -14 -14 -14 -14 -14 -14 -14 -13 -13 -13 -13 -13 -12 -13 -11 -11 -11 -11 -10 -10 -10 -9 -9
-14 -14 -14 -14 -14 -14 -14 -14 -14 -14 -14 -14 -14 -14 -14 -14 -15 -14 -14 -15 -15 -15 -15 -16 -16 -16 -16 -16 -15 -15 -15 -14 -14 -14 -12 -13 -13 -11 -11 -11 -11 -10 -10 -10 -10
-15 -14 -14 -14 -14 -14 -14 -14 -14 -14 -14 -15 -15 -15 -15 -15 -15 -15 -15 -15 -15 -16 -17 -18 -18 -18 -18 -18 -18 -18 -19 -18 -18 -17 -14 -16 -15 -11 -11 -12 -12 -11 -11 -10 -10
-15 -15 -15 -15 -14 -14 -15 -15 -15 -15 -15 -15 -15 -15 -15 -16 -16 -15 -16 -16 -18 -18 -19 -20 -21 -21 -22 -24 -24 -23 -23 -22 -21 -20 -19 -19 -16 -12 -16 -14 -13 -13 -12 -11 -11
-15 -15 -15 -15 -14 -15 -15 -15 -15 -15 -15 -15 -15 -16 -16 -16 -16 -16 -17 -19 -20 -21 -22 -22 -23 -24 -24 -25 -24 -24 -24 -24 -23 -22 -21 -21 -19 -18 -19 -17 -17 -14 -13 -12 -12
-15 -15 -15 -15 -15 -15 -15 -15 -16 -16 -15 -15 -16 -16 -16 -16 -17 -17 -19 -21 -22 -22 -23 -23 -24 -25 -25 -25 -24 -24 -24 -23 -23 -22 -21 -20 -20 -20 -20 -20 -19 -18 -15 -14 -13
-16 -16 -16 -15 -15 -15 -15 -16 -16 -16 -16 -16 -16 -16 -16 -17 -18 -19 -21 -22 -23 -23 -23 -23 -24 -25 -24 -24 -24 -24 -23 -23 -23 -22 -21 -20 -20 -20 -19 -19 -19 -20 -19 -17 -16
-16 -16 -16 -16 -16 -16 -16 -16 -16 -16 -16 -16 -16 -17 -17 -17 -20 -21 -22 -23 -23 -23 -23 -24 -23 -24 -24 -24 -24 -23 -23 -23 -23 -22 -22 -20 -20 -20 -19 -19 -19 -19 -20 -19 -18
-16 -16 -16 -16 -16 -16 -16 -16 -17 -16 -16 -17 -17 -17 -17 -18 -21 -22 -23 -23 -23 -23 -23 -24 -23 -24 -24 -24 -24 -23 -23 -23 -23 -22 -22 -22 -20 -20 -20 -19 -18 -19 -19 -19 -19
-16 -16 -16 -16 -16 -16 -16 -16 -17 -17 -17 -17 -17 -17 -18 -19 -21 -23 -23 -24 -24 -24 -24 -24 -24 -23 -24 -24 -23 -23 -23 -23 -22 -22 -22 -21 -20 -20 -20 -19 -19 -18 -18 -19 -19
-17 -16 -17 -17 -16 -16 -16 -17 -17 -17 -17 -17 -17 -17 -19 -21 -22 -23 -24 -24 -24 -24 -24 -24 -24 -24 -24 -24 -23 -23 -23 -22 -22 -22 -21 -21 -20 -20 -20 -19 -18 -18 -17 -18 -18
-17 -17 -17 -17 -17 -17 -17 -17 -17 -17 -17 -17 -17 -17 -19 -21 -22 -23 -23 -23 -24 -24 -24 -24 -24 -23 -24 -23 -23 -23 -22 -22 -22 -22 -21 -20 -20 -20 -19 -19 -19 -17 -17 -17 -18
-17 -17 -17 -17 -17 -17 -17 -17 -17 -17 -17 -17 -17 -18 -20 -22 -22 -22 -22 -23 -23 -23 -24 -24 -23 -23 -23 -23 -23 -23 -22 -22 -22 -21 -21 -20 -20 -20 -19 -19 -19 -17 -17 -17 -18
-17 -17 -17 -17 -17 -17 -17 -17 -17 -17 -17 -17 -17 -18 -20 -22 -22 -23 -23 -23 -23 -23 -24 -24 -23 -23 -23 -23 -23 -23 -22 -22 -22 -21 -20 -20 -19 -19 -19 -19 -18 -17 -16 -16 -16
Height
5793 5792 5791 5789 5787 5786 5786 5784 5783 5782 5781 5780 5778 5778 5777 5778 5777 5777 5778 5778 5778 5778 5778 5779 5779 5779 5778 5778 5778 5778 5777 5782 5787 5787 5789 5790 5788 5791 5794 5798 5798 5801 5803 5807 5808
5789 5788 5788 5786 5785 5784 5782 5782 5780 5779 5777 5776 5776 5775 5775 5774 5774 5775 5775 5774 5774 5774 5774 5773 5773 5774 5774 5775 5773 5772 5772 5776 5779 5779 5781 5783 5782 5784 5787 5788 5790 5794 5798 5798 5804
5786 5786 5785 5784 5783 5782 5781 5779 5778 5777 5776 5775 5774 5773 5773 5771 5772 5772 5770 5769 5769 5769 5768 5768 5767 5767 5767 5768 5768 5768 5767 5769 5771 5772 5772 5774 5774 5776 5778 5781 5784 5788 5790 5790 5796
5783 5782 5782 5782 5781 5780 5779 5777 5776 5775 5774 5773 5772 5771 5769 5769 5770 5768 5767 5766 5765 5763 5763 5762 5761 5760 5760 5760 5760 5759 5760 5763 5765 5765 5765 5766 5768 5768 5770 5774 5776 5780 5781 5785 5790
5779 5779 5780 5780 5779 5778 5777 5776 5774 5773 5771 5770 5769 5768 5767 5765 5764 5763 5762 5761 5759 5757 5756 5755 5754 5752 5752 5752 5752 5751 5752 5754 5756 5757 5757 5759 5761 5763 5763 5765 5768 5771 5774 5776 5783
5777 5778 5778 5777 5777 5776 5775 5773 5772 5770 5768 5767 5765 5763 5762 5762 5760 5757 5756 5753 5751 5749 5747 5746 5745 5744 5743 5744 5743 5743 5742 5743 5745 5747 5750 5750 5753 5755 5758 5758 5761 5763 5767 5768 5776
5776 5776 5776 5775 5774 5774 5772 5770 5768 5766 5764 5762 5761 5759 5756 5754 5751 5749 5747 5744 5742 5740 5738 5736 5734 5733 5734 5732 5732 5732 5733 5732 5735 5735 5737 5737 5744 5747 5749 5751 5754 5755 5757 5760 5765
5775 5775 5775 5774 5772 5771 5769 5767 5764 5763 5761 5759 5757 5754 5751 5747 5744 5740 5738 5735 5732 5729 5727 5725 5722 5721 5720 5720 5720 5720 5721 5721 5723 5723 5725 5725 5739 5737 5736 5740 5744 5747 5749 5752 5754
5774 5773 5772 5771 5770 5768 5766 5763 5761 5758 5756 5755 5752 5748 5745 5740 5737 5733 5729 5725 5722 5719 5715 5713 5711 5709 5708 5707 5707 5706 5707 5707 5708 5709 5710 5714 5726 5721 5723 5728 5733 5737 5740 5743 5745
5771 5770 5770 5769 5767 5765 5763 5760 5757 5755 5752 5748 5746 5743 5740 5736 5730 5725 5720 5717 5712 5709 5706 5702 5699 5697 5695 5693 5693 5694 5693 5694 5694 5697 5696 5701 5708 5708 5712 5714 5721 5726 5729 5732 5735
5768 5767 5767 5765 5762 5760 5759 5756 5755 5752 5748 5745 5740 5737 5732 5728 5723 5718 5713 5709 5704 5699 5695 5692 5689 5684 5682 5679 5678 5677 5678 5678 5680 5680 5681 5685 5691 5693 5697 5705 5710 5716 5719 5721 5726
5764 5764 5763 5761 5759 5756 5754 5752 5749 5747 5743 5738 5734 5730 5726 5722 5716 5711 5706 5702 5696 5690 5686 5681 5675 5672 5669 5666 5665 5663 5662 5663 5664 5665 5665 5665 5675 5678 5683 5689 5695 5700 5706 5710 5714
5760 5760 5759 5757 5754 5752 5749 5747 5743 5740 5739 5735 5729 5725 5721 5716 5708 5704 5699 5694 5688 5681 5675 5669 5666 5660 5656 5652 5650 5649 5646 5647 5647 5648 5649 5648 5660 5664 5669 5673 5679 5686 5692 5697 5700
5756 5756 5755 5753 5752 5748 5745 5742 5738 5735 5733 5729 5724 5719 5714 5708 5704 5697 5692 5687 5678 5672 5666 5658 5652 5647 5642 5637 5634 5633 5630 5629 5630 5630 5633 5633 5636 5649 5653 5658 5665 5671 5673 5680 5686
5751 5751 5749 5748 5745 5743 5741 5737 5734 5731 5729 5725 5718 5713 5707 5703 5697 5691 5684 5676 5670 5661 5656 5649 5641 5635 5629 5624 5620 5617 5614 5613 5611 5613 5617 5621 5614 5639 5639 5641 5645 5651 5657 5661 5669
5746 5746 5745 5743 5740 5738 5735 5732 5729 5727 5722 5718 5712 5707 5701 5695 5689 5681 5674 5669 5661 5653 5644 5637 5632 5624 5617 5611 5606 5603 5601 5600 5598 5597 5604 5603 5599 5633 5620 5622 5625 5629 5635 5642 5650
5741 5740 5739 5738 5736 5733 5730 5728 5726 5722 5718 5713 5707 5701 5694 5688 5680 5672 5665 5658 5650 5643 5635 5630 5622 5610 5604 5602 5600 5596 5594 5590 5592 5592 5592 5591 5592 5609 5600 5602 5605 5611 5617 5625 5633
5735 5734 5734 5733 5731 5729 5725 5723 5719 5716 5712 5706 5700 5694 5687 5681 5673 5664 5655 5648 5642 5634 5622 5615 5611 5602 5598 5597 5595 5594 5590 5590 5586 5586 5585 5586 5587 5588 5585 5586 5587 5593 5600 5607 5614
5730 5728 5728 5728 5726 5723 5721 5718 5714 5711 5706 5700 5694 5688 5681 5674 5665 5656 5650 5643 5635 5628 5621 5609 5609 5600 5597 5597 5594 5591 5589 5590 5588 5587 5582 5583 5584 5583 5578 5577 5579 5581 5584 5591 5598
5723 5723 5722 5722 5721 5719 5717 5713 5709 5705 5700 5694 5687 5681 5674 5666 5657 5648 5643 5639 5632 5625 5615 5610 5605 5600 5598 5596 5594 5591 5590 5589 5588 5582 5579 5580 5579 5574 5573 5572 5570 5570 5571 5577 5582
5717 5717 5716 5717 5716 5714 5712 5708 5704 5700 5695 5689 5682 5675 5668 5659 5651 5645 5639 5636 5630 5624 5614 5607 5604 5600 5597 5595 5592 5591 5589 5589 5586 5584 5579 5573 5576 5570 5567 5565 5564 5562 5562 5565 5570
5709 5710 5711 5712 5711 5708 5707 5703 5700 5695 5690 5684 5677 5669 5661 5653 5647 5641 5636 5631 5625 5620 5614 5606 5601 5597 5595 5593 5591 5589 5589 5587 5585 5583 5580 5575 5572 5566 5562 5557 5555 5554 5552 5555 5560
5704 5704 5706 5706 5705 5703 5701 5698 5695 5690 5685 5680 5672 5664 5656 5648 5643 5638 5634 5629 5622 5616 5610 5604 5598 5595 5596 5594 5590 5589 5588 5586 5585 5581 5579 5574 5569 5565 5560 5554 5545 5540 5541 5544 5550
5698 5699 5700 5699 5699 5698 5696 5694 5689 5685 5681 5675 5667 5659 5651 5644 5639 5634 5629 5625 5619 5613 5608 5602 5597 5595 5594 5591 5589 5588 5587 5586 5583 5579 5575 5572 5566 5562 5554 5545 5533 5522 5522 5529 5537
5691 5694 5693 5693 5694 5692 5692 5689 5684 5682 5677 5670 5663 5655 5648 5641 5637 5632 5627 5622 5616 5610 5605 5601 5597 5595 5593 5591 5589 5588 5587 5585 5582 5579 5574 5570 5564 5559 5550 5537 5522 5513 5510 5517 5525
5683 5687 5687 5687 5688 5687 5686 5683 5681 5677 5673 5667 5659 5651 5644 5639 5633 5628 5624 5619 5615 5610 5604 5599 5596 5595 5593 5591 5589 5588 5587 5585 5581 5579 5575 5569 5564 5558 5550 5539 5524 5516 5514 5518 5524
5678 5680 5681 5682 5682 5682 5681 5678 5677 5673 5669 5663 5655 5648 5641 5637 5632 5626 5621 5617 5612 5607 5603 5599 5596 5595 5593 5591 5590 5590 5587 5585 5581 5577 5572 5568 5564 5558 5551 5542 5529 5520 5519 5523 5529
Wind_Speed
23 23 17 14 13 13 13 14 14 16 18 15 15 16 15 14 16 18 20 21 21 21 22 22 22 22 21 23 27 29 35 29 23 25 24 26 34 33 34 34 37 33 32 30 29
23 19 14 12 13 13 15 16 17 16 16 15 15 15 16 16 17 18 19 21 23 25 25 26 27 27 28 27 28 29 31 26 26 31 31 28 35 32 33 39 38 37 33 35 31
20 16 14 14 14 14 15 15 15 15 14 14 16 16 18 20 20 19 21 24 25 27 30 30 30 31 31 33 32 32 31 29 26 28 30 33 37 37 36 35 37 37 40 40 34
14 15 15 15 11 10 10 10 11 14 15 17 16 17 17 19 21 23 25 26 29 31 32 34 35 35 35 36 36 37 38 36 33 32 32 32 34 38 40 37 37 36 40 40 35
12 11 11 8 8 7 10 13 15 17 19 20 21 22 23 23 24 26 28 30 30 31 33 36 37 39 38 39 40 41 41 39 38 37 37 37 35 36 37 39 39 38 38 42 39
7 4 4 5 7 10 12 14 16 17 19 21 23 27 27 29 29 31 32 34 34 36 36 37 38 40 43 43 44 44 45 44 43 41 39 40 41 40 37 38 38 41 38 40 40
1 3 4 6 9 11 14 18 19 21 24 26 27 28 29 33 34 36 39 41 40 41 40 40 41 42 43 45 47 49 49 48 46 45 43 46 41 40 42 40 37 39 40 42 42
3 4 8 11 12 15 18 20 21 23 25 26 28 29 30 34 35 37 41 42 42 41 40 42 42 43 44 46 48 49 51 54 52 52 51 50 40 45 46 45 44 40 41 38 41
7 8 11 14 15 16 18 19 19 24 25 26 30 33 35 38 39 41 43 43 41 41 43 41 40 42 43 45 48 51 53 55 56 57 58 56 50 50 50 49 48 45 44 40 42
13 14 16 15 15 16 18 20 25 28 28 31 32 36 36 38 41 41 40 39 39 38 40 41 42 41 43 44 46 47 51 55 58 58 60 58 55 57 55 53 51 49 48 45 44
17 17 17 16 16 18 20 22 25 27 29 30 31 35 39 40 39 40 40 39 40 41 42 41 42 45 44 44 46 46 46 50 54 59 62 62 59 60 60 56 54 52 50 48 48
18 17 17 19 20 20 21 23 23 26 30 30 35 38 40 40 40 40 39 39 41 42 42 43 43 43 44 46 47 48 49 49 50 52 58 63 62 62 62 60 59 58 55 52 52
16 15 19 21 23 22 20 23 23 27 29 33 35 38 39 40 41 39 40 42 43 43 44 44 45 45 45 46 48 48 49 50 51 54 56 58 58 61 64 63 61 60 59 57 56
18 18 20 23 25 22 21 21 23 25 31 32 35 38 39 39 40 41 44 44 46 46 46 48 48 47 46 47 48 48 50 51 53 55 56 59 60 57 60 63 64 63 64 61 60
21 21 21 25 26 20 22 21 24 25 32 33 36 38 38 40 43 45 45 47 48 49 48 48 50 48 47 46 46 46 48 50 52 53 54 54 60 48 55 59 63 66 66 66 63
22 23 25 26 25 22 22 22 24 28 33 34 36 37 41 45 48 48 49 49 49 48 51 50 47 45 43 42 41 40 39 40 44 47 50 45 53 43 54 59 61 65 68 67 67
25 26 26 27 24 23 23 23 25 29 33 35 36 40 44 46 48 50 51 50 48 51 50 48 42 40 34 28 26 28 29 29 27 27 32 31 45 46 45 49 56 60 61 66 67
25 25 26 26 25 26 24 24 26 30 33 35 39 43 46 47 48 51 48 46 46 45 51 54 39 28 24 22 19 18 18 15 23 20 16 12 16 16 23 28 38 48 55 61 64
25 26 27 28 27 28 26 26 27 31 34 36 40 46 47 49 49 49 46 41 40 43 47 52 27 20 12 15 18 11 10 9 18 18 15 4 8 13 17 19 20 28 42 52 59
27 27 26 28 29 29 27 27 30 32 35 38 43 47 49 49 47 45 40 36 36 40 47 42 27 17 12 12 10 10 8 10 16 21 22 21 19 25 18 16 20 25 31 38 45
29 27 27 27 28 28 28 27 30 33 36 39 44 47 49 47 41 35 34 33 34 37 43 38 27 17 13 13 9 6 5 11 15 17 24 25 24 21 21 22 21 28 32 30 38
29 27 26 26 29 28 28 28 31 33 37 40 44 48 47 47 35 30 32 34 37 39 36 33 28 16 13 16 14 5 9 10 19 20 21 28 21 23 27 30 28 26 39 36 35
25 26 25 26 29 28 27 28 32 34 37 42 46 48 45 41 35 28 30 34 37 37 34 32 26 15 7 14 11 9 7 13 17 22 23 29 26 26 29 30 34 35 35 40 34
28 24 25 26 28 28 26 29 32 34 37 42 47 45 43 34 28 29 32 33 34 33 32 28 20 17 18 21 12 5 9 13 17 23 27 27 29 32 30 32 29 29 32 43 42
28 24 27 30 30 28 28 29 31 35 38 43 45 45 39 31 24 24 26 24 27 30 30 22 15 18 23 17 6 6 12 14 18 22 27 28 27 23 26 35 35 13 11 27 39
33 30 25 28 28 27 28 29 30 35 37 42 44 43 35 24 22 22 23 24 24 25 29 20 16 13 20 16 5 6 11 14 17 21 22 24 19 19 22 31 26 11 3 14 20
31 28 27 29 28 29 30 29 30 34 36 41 41 40 33 23 21 24 24 22 25 27 24 19 16 10 17 13 4 7 9 12 17 19 26 22 17 15 21 26 24 7 9 6 22
Wind_Direction
299 304 307 306 310 314 317 315 317 315 315 313 311 303 299 297 289 284 287 287 283 278 278 276 275 274 271 265 264 259 260 262 261 261 258 256 259 248 246 242 243 239 243 236 232
296 300 304 307 310 315 320 318 321 317 315 312 306 303 298 296 292 290 284 282 279 279 275 274 274 270 271 269 267 267 267 267 259 254 251 248 257 256 247 249 243 240 240 243 231
292 295 297 306 314 321 324 328 335 334 333 324 319 315 307 303 298 290 286 283 280 277 276 272 271 269 267 267 268 265 265 267 261 258 253 245 244 250 254 249 248 242 239 237 239
285 290 301 305 312 324 327 339 345 347 344 336 328 320 315 310 306 303 298 290 285 281 275 274 273 271 269 266 266 265 263 261 260 262 261 257 253 248 247 249 249 248 243 240 240
286 298 299 310 323 332 340 343 339 334 329 325 320 316 310 305 305 302 298 295 290 285 281 275 271 271 268 266 264 263 263 263 261 256 258 257 257 256 255 247 246 247 244 245 237
285 303 314 326 334 337 337 332 330 326 323 321 326 321 313 309 305 299 294 291 287 284 278 275 274 270 268 267 265 261 260 260 260 259 260 261 257 256 259 255 249 251 242 247 236
312 323 334 331 327 317 325 334 334 331 332 330 327 316 309 313 312 306 299 294 291 287 282 277 273 270 268 265 264 263 261 258 257 256 255 256 253 254 255 256 253 253 253 245 241
346 341 334 329 329 332 331 327 327 326 325 326 326 322 317 316 312 308 304 298 295 291 287 282 278 273 268 265 264 261 260 260 259 257 255 253 251 251 250 250 251 249 251 251 247
315 321 322 330 327 326 328 327 327 329 327 324 330 326 326 321 315 309 303 301 300 296 293 290 285 281 274 267 262 259 259 258 257 257 256 255 252 250 249 248 248 248 251 252 250
302 314 314 322 325 328 330 328 331 328 327 328 330 328 327 321 315 310 307 305 302 301 298 295 291 286 281 279 273 265 262 260 258 256 256 256 253 253 250 250 248 249 250 248 251
292 303 304 318 324 325 323 325 327 327 327 333 333 329 327 324 317 311 309 308 307 305 302 297 293 289 286 282 278 275 270 265 261 259 255 253 251 252 252 251 252 252 252 250 249
288 291 300 314 320 322 322 320 325 328 333 333 332 330 325 322 316 314 312 312 311 307 302 301 298 293 287 282 278 276 274 269 267 263 259 255 250 250 251 251 248 246 246 246 247
279 288 300 311 318 317 316 317 326 330 333 332 333 331 327 323 320 318 315 313 311 309 306 304 300 297 291 286 280 277 274 270 266 261 261 260 254 251 249 249 249 249 247 245 246
281 286 296 303 309 309 312 316 325 331 331 334 333 331 329 328 324 319 317 316 312 311 309 306 304 302 298 293 285 279 275 271 266 261 257 256 261 253 250 249 248 248 249 243 241
276 280 291 300 304 303 310 316 323 329 331 331 332 330 329 327 323 322 319 318 317 316 314 313 309 305 301 294 287 282 275 271 268 264 261 260 258 255 251 251 248 246 247 245 241
277 282 290 293 299 301 306 314 321 328 329 329 330 330 329 326 324 323 321 320 319 318 316 314 315 309 300 293 288 282 277 274 272 270 264 268 263 253 250 251 249 244 244 243 242
277 282 284 290 295 299 305 310 317 323 326 327 328 330 330 329 327 325 323 322 322 319 317 324 328 315 299 295 296 299 299 300 286 286 282 284 265 252 263 256 249 246 244 243 243
273 277 281 286 289 298 305 307 316 321 324 326 328 331 330 330 329 326 326 325 324 324 326 334 339 309 294 302 330 315 290 301 314 321 309 300 305 274 282 259 252 250 245 243 242
273 275 277 282 289 300 305 306 316 321 324 325 328 332 332 330 330 326 326 325 326 330 333 336 349 321 312 318 325 339 300 299 325 319 313 289 298 304 306 289 273 257 244 242 241
270 270 278 283 291 299 304 308 315 322 323 325 329 332 333 332 329 327 326 325 328 332 335 340 345 334 310 305 307 329 306 315 317 323 316 319 322 318 294 278 284 248 246 236 236
269 266 274 281 291 297 306 307 316 323 322 326 329 331 333 331 330 326 322 322 327 334 335 337 339 335 312 297 295 298 345 319 333 337 329 322 343 323 316 299 273 258 241 227 226
263 264 272 278 293 294 305 309 317 321 322 325 328 331 333 330 331 325 320 323 328 333 334 338 338 332 320 315 330 307 340 347 337 333 330 324 345 335 321 307 281 268 240 227 221
264 267 272 277 292 294 303 311 316 322 321 324 328 332 333 330 330 327 323 325 329 330 333 340 338 340 320 325 329 317 317 312 319 328 331 320 327 328 323 316 299 269 246 224 214
263 271 264 274 290 296 302 311 318 321 320 324 328 331 332 332 334 327 326 327 327 327 332 340 336 347 333 341 350 303 298 321 325 321 331 327 323 326 321 325 309 289 248 226 221
257 271 268 271 284 299 298 308 320 319 319 325 329 331 332 333 339 332 331 337 329 330 335 341 345 356 333 342 352 331 341 338 334 331 329 342 335 336 334 346 343 337 263 212 221
264 267 264 277 280 294 296 305 316 318 320 325 327 330 332 335 339 334 335 335 335 335 342 350 358 351 340 348 353 324 336 334 333 336 346 342 341 340 357 359 353 7 164 186 201
262 252 270 276 275 283 296 298 311 317 320 325 326 329 333 331 327 327 326 328 329 331 334 346 358 5 341 349 353 336 350 354 351 358 356 359 4 8 24 18 22 3 121 163 162